Stations météo

réclame
Mon MeteoGroup
Perpignan, France (7747): Température de l'air & dewpoint: 14.11.2017 12:00:00 - 20.11.2017 12:00:00 (CET)Perpignan, France (7747): Température de l'air 5cm: 14.11.2017 12:00:00 - 20.11.2017 12:00:00 (CET)Perpignan, France (7747): Température de l'air -20cm & Température de l'air -100cm: 14.11.2017 12:00:00 - 20.11.2017 12:00:00 (CET)Perpignan, France (7747): Vitesse du vent & gusts: 14.11.2017 12:00:00 - 20.11.2017 12:00:00 (CET)Perpignan, France (7747): Direction du vent: 14.11.2017 12:00:00 - 20.11.2017 12:00:00 (CET)Perpignan, France (7747): reduced air pressure: 14.11.2017 12:00:00 - 20.11.2017 12:00:00 (CET)Perpignan, France (7747): visibility: 14.11.2017 12:00:00 - 20.11.2017 12:00:00 (CET)Perpignan, France (7747): Ensoleillement: 14.11.2017 12:00:00 - 20.11.2017 12:00:00 (CET)Perpignan, France (7747): Quantités de précipitations: 14.11.2017 12:00:00 - 20.11.2017 12:00:00 (CET)
Date & Time tt [°C] td [°C] tt 5cm [°C] tt -20cm [°C] tt -100cm [°C] ff [km/h] ff [knt] fx [km/h] fx [knt] dd ppp [hPa] vv [km] sd [min] rr [mm]
20.11.2017 12:00:00 19,1 4,4 21,2 13,2 16,2 16 9 28 15 NNW 1022,4 10 60 0,0
20.11.2017 11:00:00 17,2 4,5 20,2 13,1 16,2 15 8 26 14 WNW 1023,1 10 60 0,0
20.11.2017 10:00:00 15,4 3,8 15,9 13,2 16,2 8 4 23 12 W 1023,2 10 60 0,0
20.11.2017 09:00:00 12,5 2,3 9,9 13,2 16,2 9 5 25 14 S 1023,1 10 58 0,0
20.11.2017 08:00:00 10,9 3,2 7,0 13,3 16,2 15 8 28 15 W 1023,0 10 1 0,0
20.11.2017 07:00:00 11,9 3,4 10,7 13,3 16,2 16 9 34 19 WNW 1022,8 60 0 0,0
20.11.2017 06:00:00 11,8 2,8 8,9 13,4 16,2 21 11 34 18 NW 1022,6 10 0 0,0
20.11.2017 05:00:00 10,8 1,3 9,1 13,4 16,2 15 8 30 16 W 1022,9 10 0 0,0
20.11.2017 04:00:00 11,4 1,6 10,3 13,5 16,2 22 12 32 17 WNW 1023,2 10 0 0,0
20.11.2017 03:00:00 11,5 1,1 10,4 13,6 16,2 16 9 43 23 NW 1023,4 10 0 0,0
20.11.2017 02:00:00 11,7 -0,5 9,8 13,6 16,2 26 14 45 24 NW 1023,3 10 0 0,0
20.11.2017 01:00:00 11,6 -2,6 10,3 13,7 16,2 15 8 55 30 NW 1023,7 10 0 0,0
20.11.2017 00:00:00 11,9 -1,3 10,9 13,7 16,2 31 17 52 28 NW 1023,4 10 0 0,0
19.11.2017 23:00:00 11,8 0,8 10,8 13,8 16,2 35 19 52 28 NW 1023,4 10 0 0,0
19.11.2017 22:00:00 11,5 2,0 10,8 13,8 16,2 31 17 54 29 NW 1023,2 10 0 0,0
19.11.2017 21:00:00 12,2 2,3 11,5 13,9 16,2 34 18 52 28 NW 1022,9 10 0 0,0
19.11.2017 20:00:00 13,1 2,3 12,4 13,9 16,2 34 18 49 26 NW 1022,4 10 0 0,0
19.11.2017 19:00:00 13,4 2,3 12,5 13,9 16,2 22 12 47 26 NNW 1022,2 60 0 0,0
19.11.2017 18:00:00 14,2 3,0 13,2 13,8 16,3 29 16 51 27 NW 1021,5 10 6 0,0
19.11.2017 17:00:00 15,5 2,6 15,0 13,7 16,2 29 16 47 25 NW 1021,2 10 60 0,0
19.11.2017 16:00:00 16,9 2,8 17,9 13,6 16,3 22 12 43 23 NW 1020,8 10 60 0,0
19.11.2017 15:00:00 17,5 1,9 18,2 13,5 16,2 28 15 49 27 NW 1020,8 42 60 0,0
19.11.2017 14:00:00 17,7 0,3 17,4 13,3 16,2 28 15 42 23 NW 1021,5 10 60 0,0
19.11.2017 13:00:00 16,8 -0,4 18,8 13,2 16,2 28 15 51 28 NNW 1022,1 10 60 0,0
19.11.2017 12:00:00 16,5 1,0 18,1 13,1 16,2 28 15 48 26 NNW 1022,0 10 60 0,0
19.11.2017 11:00:00 15,2 1,3 16,1 13,0 16,2 30 16 51 27 NNW 1021,9 54 60 0,0
19.11.2017 10:00:00 13,2 3,0 13,1 13,1 16,3 28 15 55 30 NW 1022,1 10 60 0,0
19.11.2017 09:00:00 11,6 1,8 11,5 13,2 16,2 34 18 59 32 WNW 1021,7 10 50 0,0
19.11.2017 08:00:00 11,7 -1,5 9,8 13,2 16,2 34 18 51 28 NW 1020,7 10 0 0,0
19.11.2017 07:00:00 10,9 0,3 8,5 13,3 16,2 26 14 50 27 WNW 1020,6 10 0 0,0
19.11.2017 06:00:00 11,0 2,3 9,9 13,4 16,2 34 18 71 38 NW 1020,2 10 0 0,0
19.11.2017 05:00:00 10,9 3,0 7,8 13,5 16,2 21 11 36 19 WNW 1020,3 10 0 0,0
19.11.2017 04:00:00 9,6 3,1 7,7 13,6 16,3 16 9 36 20 W 1020,3 10 0 0,0
19.11.2017 03:00:00 10,3 3,6 8,2 13,7 16,3 18 10 41 22 WSW 1020,5 60 0 0,0
19.11.2017 02:00:00 11,0 3,3 8,4 13,7 16,3 16 9 34 19 SSW 1020,7 10 0 0,0
19.11.2017 01:00:00 11,3 3,3 9,0 13,8 16,2 16 9 35 19 NW 1021,2 10 0 0,0
19.11.2017 00:00:00 11,1 3,9 8,5 13,9 16,3 16 9 31 17 W 1021,8 10 0 0,0
18.11.2017 23:00:00 11,0 4,2 9,6 14,0 16,3 22 12 39 21 W 1021,7 10 0 0,0
18.11.2017 22:00:00 11,3 5,2 9,2 14,1 16,3 21 11 33 18 W 1021,8 10 0 0,0
18.11.2017 21:00:00 11,8 4,7 9,9 14,1 16,3 12 6 49 27 NW 1021,2 50 0 0,0
18.11.2017 20:00:00 12,7 4,4 11,8 14,1 16,3 28 15 57 31 NW 1020,7 10 0 0,0
18.11.2017 19:00:00 13,6 4,2 13,0 14,2 16,3 35 19 63 34 NNW 1020,3 10 0 0,0
18.11.2017 18:00:00 14,5 3,6 13,6 14,1 16,3 40 22 63 34 NW 1019,5 60 7 0,0
18.11.2017 17:00:00 15,5 3,3 15,0 14,0 16,2 28 15 50 27 NW 1019,4 56 60 0,0
18.11.2017 16:00:00 16,9 3,2 17,7 13,9 16,3 34 18 59 32 NNW 1019,4 10 60 0,0
18.11.2017 15:00:00 17,9 3,4 19,0 13,7 16,3 26 14 48 26 NNW 1019,3 10 60 0,0
18.11.2017 14:00:00 18,3 2,6 20,3 13,6 16,2 31 17 51 27 NW 1019,5 10 60 0,0
18.11.2017 13:00:00 17,8 3,3 19,1 13,5 16,3 26 14 55 30 NNW 1019,9 10 60 0,0
18.11.2017 12:00:00 16,9 3,6 18,6 13,4 16,3 34 18 58 31 NNW 1020,7 10 60 0,0
18.11.2017 11:00:00 15,9 4,6 17,7 13,4 16,3 28 15 45 25 NNW 1020,9 10 60 0,0
18.11.2017 10:00:00 14,8 4,5 15,9 13,4 16,3 26 14 44 24 NW 1021,2 10 60 0,0
18.11.2017 09:00:00 13,6 4,7 12,8 13,4 16,3 27 15 49 27 NW 1021,1 60 60 0,0
18.11.2017 08:00:00 13,0 4,9 11,4 13,4 16,3 31 17 46 25 NW 1020,4 10 2 0,0
18.11.2017 07:00:00 12,3 5,0 11,2 13,5 16,3 24 13 43 23 NW 1020,1 10 0 0,0
18.11.2017 06:00:00 12,1 4,1 10,7 13,6 16,3 21 11 38 20 NW 1020,0 47 0 0,0
18.11.2017 05:00:00 11,6 3,9 9,9 13,6 16,3 13 7 47 26 NW 1020,2 10 0 0,0
18.11.2017 04:00:00 12,5 4,2 11,1 13,6 16,3 28 15 46 25 NW 1020,0 10 0 0,0
18.11.2017 03:00:00 12,2 5,1 11,0 13,7 16,3 18 10 35 19 NW 1020,5 29 0 0,0
18.11.2017 02:00:00 12,9 4,8 11,2 13,7 16,3 22 12 39 21 WNW 1020,3 10 0 0,0
18.11.2017 01:00:00 13,6 4,5 12,2 13,7 16,3 24 13 46 25 NNW 1020,2 53 0 0,0
18.11.2017 00:00:00 13,7 4,3 12,6 13,7 16,4 21 11 50 27 NW 1020,3 10 0 0,0
17.11.2017 23:00:00 14,3 4,3 13,5 13,8 16,4 31 17 55 30 NW 1020,1 10 0 0,0
17.11.2017 22:00:00 14,8 3,6 14,0 13,8 16,3 34 18 56 31 NNW 1019,8 10 0 0,0
17.11.2017 21:00:00 15,4 1,9 14,6 13,8 16,3 29 16 51 27 NNW 1019,2 10 0 0,0
17.11.2017 20:00:00 16,0 0,9 15,1 13,7 16,4 28 15 54 29 NW 1019,1 10 0 0,0
17.11.2017 19:00:00 16,7 -0,5 15,8 13,7 16,4 31 17 54 29 NW 1018,8 10 0 0,0
17.11.2017 18:00:00 17,6 -1,1 16,7 13,6 16,4 31 17 57 31 NW 1017,8 10 3 0,0
17.11.2017 17:00:00 18,5 -1,4 18,0 13,5 16,4 39 21 59 32 NW 1017,6 10 60 0,0
17.11.2017 16:00:00 19,7 -1,5 20,0 13,4 16,4 21 11 60 32 NW 1017,8 10 60 0,0
17.11.2017 15:00:00 20,7 -0,6 21,2 13,1 16,4 34 18 56 30 NW 1018,0 10 60 0,0
17.11.2017 14:00:00 21,1 -0,3 22,3 12,9 16,4 35 19 53 29 NW 1018,1 10 60 0,0
17.11.2017 13:00:00 20,4 -0,3 22,2 12,7 16,4 32 17 54 29 NW 1018,4 46 60 0,0
17.11.2017 12:00:00 19,7 -0,4 22,0 12,6 16,4 29 16 49 26 NW 1019,0 10 60 0,0
17.11.2017 11:00:00 18,1 -0,2 19,1 12,4 16,4 28 15 45 24 NW 1019,6 10 60 0,0
17.11.2017 10:00:00 17,7 -0,6 18,0 12,4 16,4 24 13 45 25 NW 1020,0 10 60 0,0
17.11.2017 09:00:00 16,2 -1,4 14,7 12,4 16,4 31 17 48 26 NW 1019,9 10 58 0,0
17.11.2017 08:00:00 14,8 -1,3 13,0 12,4 16,5 34 18 51 28 WNW 1019,7 10 7 0,0
17.11.2017 07:00:00 14,2 -1,1 12,9 12,4 16,5 28 15 48 26 NW 1019,3 10 0 0,0
17.11.2017 06:00:00 14,7 -1,4 13,4 12,4 16,5 35 19 50 27 NW 1019,3 10 0 0,0
17.11.2017 05:00:00 14,7 -1,4 13,2 12,4 16,5 21 11 48 26 NW 1019,3 60 0 0,0
17.11.2017 04:00:00 15,1 -1,5 10,4 12,5 16,5 31 17 50 27 NW 1018,8 10 0 0,0
17.11.2017 03:00:00 12,3 0,1 4,0 12,5 16,5 9 5 23 12 WNW 1019,4 10 0 0,0
17.11.2017 02:00:00 13,6 -1,6 7,0 12,6 16,5 3 2 15 8 WNW 1019,9 60 0 0,0
17.11.2017 01:00:00 13,1 -0,9 6,1 12,6 16,5 2 1 21 11 - 1020,2 10 0 0,0
17.11.2017 00:00:00 13,0 -0,3 4,1 12,7 16,5 5 3 16 9 - 1020,4 10 0 0,0
16.11.2017 23:00:00 12,5 -0,1 5,7 12,8 16,6 11 6 19 10 WNW 1020,4 10 0 0,0
16.11.2017 22:00:00 11,0 0,1 7,1 12,9 16,6 5 3 18 10 NE 1020,9 10 0 0,0
16.11.2017 21:00:00 9,6 3,1 1,6 13,0 16,6 11 6 19 11 NW 1021,1 10 0 0,0
16.11.2017 20:00:00 6,1 3,1 1,6 13,0 16,6 4 2 13 7 - 1021,2 10 0 0,0
16.11.2017 19:00:00 6,8 3,6 2,3 13,0 16,6 8 4 10 5 WSW 1021,0 17 0 0,0
16.11.2017 18:00:00 9,0 3,6 3,7 13,0 16,6 0 0 11 6 N 1020,3 10 0 0,0
16.11.2017 17:00:00 11,5 4,7 10,8 12,9 16,6 9 5 13 7 E 1020,1 10 48 0,0
16.11.2017 16:00:00 13,2 5,1 14,7 12,7 16,6 8 4 12 7 SE 1019,7 10 60 0,0
16.11.2017 15:00:00 13,9 6,0 15,3 12,5 16,7 6 3 16 9 ESE 1019,8 25 60 0,0
16.11.2017 14:00:00 13,9 5,0 17,3 12,3 16,7 10 5 19 10 SE 1020,2 37 60 0,0
16.11.2017 13:00:00 14,4 2,6 18,0 12,1 16,6 8 4 13 7 E 1020,8 10 60 0,0
16.11.2017 12:00:00 13,3 3,1 17,5 12,0 16,7 4 2 9 5 - 1021,6 10 60 0,0
16.11.2017 11:00:00 11,8 3,5 16,1 12,0 16,7 4 2 7 4 - 1022,4 10 60 0,0
16.11.2017 10:00:00 8,5 0,2 9,6 12,0 16,6 4 2 7 4 - 1022,1 10 60 0,0
16.11.2017 09:00:00 4,6 -1,0 0,9 12,2 16,7 0 0 5 3 N 1021,9 10 60 0,0
16.11.2017 08:00:00 2,1 -2,1 -2,5 12,3 16,7 2 1 4 2 E 1021,1 10 3 0,0
16.11.2017 07:00:00 2,5 -2,0 -2,2 12,5 16,7 3 1 8 5 W 1020,8 60 0 0,0
16.11.2017 06:00:00 2,4 -2,0 -1,9 12,6 16,7 5 3 8 4 SW 1020,6 10 0 0,0
16.11.2017 05:00:00 2,6 -2,1 -0,5 12,7 16,8 8 4 12 7 W 1020,6 10 0 0,0
16.11.2017 04:00:00 2,6 -1,6 -1,7 12,9 16,8 5 3 11 6 WSW 1020,7 10 0 0,0
16.11.2017 03:00:00 3,1 -2,2 -1,5 13,0 16,8 4 2 7 4 WSW 1020,9 10 0 0,0
16.11.2017 02:00:00 4,1 -3,0 -0,6 13,2 16,8 5 3 9 5 WSW 1020,6 10 0 0,0
16.11.2017 01:00:00 4,6 -3,4 0,1 13,3 16,8 5 3 13 7 W 1020,7 10 0 0,0
16.11.2017 00:00:00 5,1 -3,2 0,3 13,4 16,8 11 6 14 8 WSW 1021,0 10 0 0,0
15.11.2017 23:00:00 6,2 -4,0 0,6 13,5 16,8 0 0 7 4 N 1020,9 10 0 0,0
15.11.2017 22:00:00 8,1 -5,4 2,0 13,6 16,8 4 2 12 6 E 1020,7 10 0 0,0
15.11.2017 21:00:00 11,2 -6,2 3,9 13,7 16,8 8 4 16 9 SW 1020,2 10 0 0,0
15.11.2017 20:00:00 10,5 -5,5 4,0 13,7 16,8 5 3 11 6 SW 1019,7 10 0 0,0
15.11.2017 19:00:00 11,9 -5,6 8,9 13,7 16,9 8 4 21 11 N 1019,0 10 0 0,0
15.11.2017 18:00:00 14,4 -5,9 13,1 13,7 16,9 13 7 37 20 N 1018,2 10 4 0,0
15.11.2017 17:00:00 16,3 -5,5 15,2 13,6 16,9 21 11 35 19 NNW 1017,9 10 0 0,0
15.11.2017 16:00:00 17,3 -5,3 16,8 13,4 16,9 16 9 33 18 NW 1017,5 10 46 0,0
15.11.2017 15:00:00 19,4 -6,3 20,1 13,2 16,9 15 8 31 17 NW 1017,2 10 60 0,0
15.11.2017 14:00:00 19,2 -5,0 22,2 13,0 16,9 15 8 29 15 NNW 1017,2 10 60 0,0
15.11.2017 13:00:00 18,6 -6,2 20,7 12,8 16,9 16 9 35 19 NNW 1017,9 10 60 0,0
15.11.2017 12:00:00 17,6 -6,3 19,7 12,7 16,9 21 11 45 24 NNW 1018,7 10 60 0,0
15.11.2017 11:00:00 16,4 -7,3 18,4 12,6 16,9 21 11 44 24 NNW 1019,0 10 60 0,0
15.11.2017 10:00:00 14,5 -7,6 15,4 12,6 16,9 15 8 37 20 NW 1019,5 10 60 0,0
15.11.2017 09:00:00 12,4 -7,1 11,1 12,7 16,9 13 7 39 21 NNW 1019,6 10 60 0,0
15.11.2017 08:00:00 11,2 -6,7 8,8 12,7 16,9 21 11 41 22 NNW 1019,5 10 10 0,0
15.11.2017 07:00:00 10,7 -5,8 9,1 12,8 17,0 29 16 50 27 NW 1019,0 10 0 0,0
15.11.2017 06:00:00 10,2 -4,2 8,7 12,8 16,9 32 17 53 28 NW 1018,9 60 0 0,0
15.11.2017 05:00:00 9,5 -2,2 8,6 12,9 17,0 34 18 63 34 NW 1019,0 10 0 0,0
15.11.2017 04:00:00 9,5 -1,6 8,3 13,0 17,0 31 17 66 35 NNW 1019,2 10 0 0,0
15.11.2017 03:00:00 9,2 -1,0 7,9 13,0 17,0 24 13 45 24 NW 1019,6 10 0 0,0
15.11.2017 02:00:00 9,0 -0,3 8,1 13,1 17,0 26 14 48 26 NW 1019,8 10 0 0,0
15.11.2017 01:00:00 9,0 -0,1 7,9 13,2 17,0 27 14 51 28 NNW 1020,7 60 0 0,0
15.11.2017 00:00:00 9,2 0,4 8,5 13,3 17,0 31 17 67 36 NNW 1021,4 10 0 0,0
14.11.2017 23:00:00 9,4 0,3 8,7 13,3 17,1 41 22 63 34 NNW 1021,6 10 0 0,0
14.11.2017 22:00:00 9,2 0,4 8,4 13,4 17,1 38 20 61 33 NW 1021,8 60 0 0,0
14.11.2017 21:00:00 9,3 0,2 8,5 13,5 17,1 31 17 57 31 NW 1022,1 10 0 0,0
14.11.2017 20:00:00 9,9 -0,6 8,8 13,5 17,1 35 19 55 30 NW 1022,3 60 0 0,0
14.11.2017 19:00:00 10,0 -0,8 9,3 13,5 17,1 29 16 50 27 NW 1022,0 10 0 0,0
14.11.2017 18:00:00 10,4 -0,4 9,4 13,5 17,1 24 13 56 30 NNW 1021,4 10 11 0,0
14.11.2017 17:00:00 11,1 -0,1 11,0 13,4 17,1 31 17 61 33 NW 1021,0 10 60 0,0
14.11.2017 16:00:00 12,0 -0,2 13,1 13,3 17,1 34 18 59 32 NW 1020,8 10 60 0,0
14.11.2017 15:00:00 12,5 -1,5 13,3 13,2 17,1 31 17 67 36 NNW 1020,8 10 60 0,0
14.11.2017 14:00:00 13,0 -1,4 14,4 13,1 17,1 31 17 72 39 NW 1020,6 10 60 0,0
14.11.2017 13:00:00 12,1 -1,1 13,9 13,0 17,1 44 24 76 41 NW 1020,3 10 60 0,0
14.11.2017 12:00:00 11,6 -1,2 13,0 13,0 17,2 45 25 82 44 NW 1020,7 23 60 0,0

tt = Température de l'air
td = dewpoint
tt 5cm = Température de l'air 5cm
tt -20cm = Température de l'air -20cm
tt -100cm = Température de l'air -100cm
ff = Vitesse du vent
fx = gusts
dd = Direction du vent
ppp = reduced air pressure
vv = visibility
sd = Ensoleillement
rr = Quantités de précipitations

stations d'obs. à proximité